Regional Weather Roundup
Issued by NWS

Home | Current Version | Previous Version | Text Only | Print | Product List | Glossary On
Versions: 1 2 3 4 5 6 7 8 9 10 11 12 13 14 15 16 17 18 19 20 21 22 23 24 25 26 27 28 29 30 31 32 33 34 35 36 37 38 39 40 41 42 43 44 45 46 47 48 49 50
703
ASUS43 KMKX 170000
RWRWI

WISCONSIN REGIONAL WEATHER ROUNDUP
NATIONAL WEATHER SERVICE MILWAUKEE/SULLIVAN WI
600 PM CST TUE JAN 16 2018

NOTE: "FAIR" INDICATES FEW OR NO CLOUDS BELOW 12,000 FEET WITH NO
SIGNIFICANT WEATHER AND/OR OBSTRUCTIONS TO VISIBILITY.

WIZ001-002-006>008-014>016-023>028-170100-
NORTHWEST WISCONSIN

CITY           SKY/WX    TMP DP  RH WIND       PRES   REMARKS
SUPERIOR ARPT  FAIR       9   1  69 SW7       30.53F WCI  -2
ASHLAND        FAIR      12   4  70 SW9       30.49F WCI   0
6HR MIN TEMP:  11; 6HR MAX TEMP:  16;

HAYWARD        FAIR       9   1  70 SW5       30.49F WCI   1
6HR MIN TEMP:   8; 6HR MAX TEMP:  15;

SIREN          FAIR       3  -4  72 W6        30.56F WCI  -8
CUMBERLAND     FAIR       3  -4  72 W9        30.52F WCI -11
RICE LAKE      FAIR       5  -1  75 CALM      30.54F
CHETEK         FAIR       6   0  75 W5        30.54S WCI  -3
LADYSMITH      FAIR      11   6  79 SW6       30.51S WCI   2
6HR MIN TEMP:  11; 6HR MAX TEMP:  21;

EAU CLAIRE     NOT AVBL
MENOMONIE      FAIR       5  -1  76 W3        30.58S
6HR MIN TEMP:   5; 6HR MAX TEMP:  12;

NEW RICHMOND   FAIR       2  -6  72 W5        30.58F WCI  -8
OSCEOLA        FAIR       2  -4  73 SW8       30.61F WCI -11
$$

WIZ003>005-009-010-017-018-170100-
NORTH CENTRAL WISCONSIN

CITY           SKY/WX    TMP DP  RH WIND       PRES   REMARKS
MANITOWISH WTR FAIR       5   5  99 CALM      30.40S FOG
ARBOR VITAE    FAIR      11   9  89 CALM      30.40F
WOODRUFF       FAIR      11   9  89 CALM      30.40F
RHINELANDER    FAIR       8   5  87 W3        30.40F
6HR MIN TEMP:   8; 6HR MAX TEMP:  20; 6HR PCP: TRACE;

EAGLE RIVER    FAIR      11   7  83 CALM      30.39S
6HR MIN TEMP:  11; 6HR MAX TEMP:  18;

LAND O LAKES   FAIR       9   7  89 CALM      30.40F
PHILLIPS       FAIR      13   6  76 CALM      30.43F
6HR MIN TEMP:  13; 6HR MAX TEMP:  21;

TOMAHAWK       FAIR      11   7  83 CALM      30.43S
MEDFORD        FAIR      12   6  79 W6        30.45S WCI   2
MERRILL        FAIR      16   8  70 CALM      30.45S
6HR MIN TEMP:  15; 6HR MAX TEMP:  22;

$$

WIZ029-030-035-036-043>047-170100-
CENTRAL WISCONSIN

CITY           SKY/WX    TMP DP  RH WIND       PRES   REMARKS
WAUSAU         CLOUDY    16  10  77 W12       30.45R WCI   3
6HR MIN TEMP:  16; 6HR MAX TEMP:  22;

MOSINEE        PTCLDY    14   9  79 W9        30.47F WCI   2
MARSHFIELD     FAIR      10   5  80 W7        30.47F WCI  -1
6HR MIN TEMP:  10; 6HR MAX TEMP:  18;

STEVENS POINT  CLOUDY    16  10  77 W6        30.49S WCI   8
WAUPACA        CLOUDY    23  10  58 W3        30.49F
WAUTOMA        CLOUDY    16  10  77 NW7       30.51S WCI   6
6HR MIN TEMP:  15; 6HR MAX TEMP:  26;

WISC RAPIDS    FAIR      15   7  70 NW7       30.51S WCI   5
6HR MIN TEMP:  14; 6HR MAX TEMP:  22;

CAMP DOUGLAS   PTCLDY     9   5  85 W9        30.54R WCI  -5
$$

WIZ011>013-019>022-031-037>040-048>050-170100-
NORTHEAST WISCONSIN

CITY           SKY/WX    TMP DP  RH WIND       PRES   REMARKS
ANTIGO         CLOUDY    15   7  71 W3        30.42F
SHAWANO        CLOUDY    22  12  65 CALM      30.47F
6HR MIN TEMP:  22; 6HR MAX TEMP:  26;

OCONTO         FAIR       9   6  90 CALM      30.47F
STURGEON BAY   FLURRIES  12   7  80 SW3       30.47S
6HR MIN TEMP:  11; 6HR MAX TEMP:  24; 6HR PCP: TRACE;

GREEN BAY      FAIR      14   8  77 SW3       30.49R
6HR MIN TEMP:  13; 6HR MAX TEMP:  23;

MANITOWOC      FAIR       8   3  80 W3        30.49F
6HR MIN TEMP:   8; 6HR MAX TEMP:  21;

APPLETON       MOCLDY    18   7  62 W6        30.46S WCI   9
CLINTONVILLE   CLOUDY    21  10  63 NW6       30.48S WCI  14
OSHKOSH        MOCLDY    17  12  80 W3        30.49R
6HR MIN TEMP:  16; 6HR MAX TEMP:  22;

$$

WIZ032>034-041-042-053>061-170100-
SOUTHWEST WISCONSIN

CITY           SKY/WX    TMP DP  RH WIND       PRES   REMARKS
LA CROSSE      FAIR       8   2  76 W6        30.60S WCI  -2
6HR MIN TEMP:   6; 6HR MAX TEMP:  15;

SPARTA         FAIR      10   6  84 SW3       30.58R
VIROQUA        FAIR       8   5  87 W7        30.53S WCI  -3
6HR MIN TEMP:   8; 6HR MAX TEMP:  14;

BOSCOBEL       FAIR      12   6  77 SW5       30.60S WCI   4
6HR MIN TEMP:  12; 6HR MAX TEMP:  19;

PRAIRIE DU CHI FAIR      10   3  73 W6        30.61S WCI   1
PLATTEVILLE    FAIR      10   6  85 W7        30.55S WCI  -1
$$

WIZ056-057-062-063-064-067-068-170100-
SOUTH CENTRAL WISCONSIN

CITY           SKY/WX    TMP DP  RH WIND       PRES   REMARKS
REEDSBURG      FAIR      14   7  73 W7        30.53S WCI   4
BARABOO/DELLS  FAIR      14   8  76 W5        30.52S WCI   7
LONE ROCK      FAIR      13   6  74 W9        30.58R WCI   1
6HR MIN TEMP:  13; 6HR MAX TEMP:  21;

MINERAL POINT  FAIR      12   9  85 W9        30.53S WCI   0
MADISON        FAIR      15   9  76 W6        30.52S WCI   6
6HR MIN TEMP:  14; 6HR MAX TEMP:  21;

MIDDLETON      FAIR      12   8  83 W5        30.53R WCI   4
WATERTOWN      CLOUDY    16  12  84 CALM      30.51R
MONROE         FAIR      16  10  79 W13       30.51S WCI   2
JANESVILLE     CLEAR     14   9  79 NW6       30.53R WCI   5
$$

WIZ051-052-058>065-066-070>072-170100-
SOUTHEAST WISCONSIN

CITY           SKY/WX    TMP DP  RH WIND       PRES   REMARKS
MILWAUKEE      FAIR      20  11  68 NW9       30.50R WCI   9
6HR MIN TEMP:  20; 6HR MAX TEMP:  25;

WAUKESHA       CLEAR     14   9  79 NW8       30.50R WCI   3
MILWAUKEE/TIMM CLEAR     16   7  67 NW5       30.51R WCI   9
RACINE         FAIR      18   8  65 NW6       30.51R WCI  10
6HR MIN TEMP:  18; 6HR MAX TEMP:  24; 6HR PCP: TRACE;

BURLINGTON     FAIR      10   4  77 NW7       30.51R WCI  -2
KENOSHA        FAIR      17   8  67 NW7       30.50R WCI   8
6HR MIN TEMP:  17; 6HR MAX TEMP:  24;

FOND DU LAC    CLOUDY    17   9  70 W5        30.49S WCI  10
6HR MIN TEMP:  15; 6HR MAX TEMP:  21; 6HR PCP: TRACE;

SHEBOYGAN      FAIR      11   8  88 W6        30.49S WCI   1
6HR MIN TEMP:  10; 6HR MAX TEMP:  21;

WEST BEND      FAIR      16  12  86 NW3       30.49R
JUNEAU         FLURRIES  14  10  83 CALM      30.51S
$$

LSZ147-162-170100-
LAKE SUPERIOR

STATION/POSITION TIME  TEMP    WIND        PRES    WAVE
                       AIR SEA DIR/SP/G            HT/PER
                 (UTC) (F)     (DEG/KT/KT) (MB)    (FT/S)
DEVILS ISLAND    2300   15     230/ 17/ 21 1033.5F
SAXON HARBOR     2340   15     220/  5/  9 1031.5F
$$

LMZ867-665-643>646-170100-
LAKE MICHIGAN

STATION/POSITION TIME  TEMP    WIND        PRES    WAVE
                       AIR SEA DIR/SP/G            HT/PER
                 (UTC) (F)     (DEG/KT/KT) (MB)    (FT/S)
NORTHPORT PIER   2340   13     250/  1/  8 1031.2S
KEWAUNEE LAKESHO 2330   15     300/  3/  4 1031.2F
SHEBOYGAN LAKESH 2300   19     290/  7/  8 1033.6R
PORT WASHINGTON  2340   18     300/  5/  7 1033.9R
MILWAUKEE LAKESH 2340   20     310/  6/  9   N/A
KENOSHA   LAKESH 2300   22     310/  7/ 10 1032.5
$$

TC  - TEMPERATURE IN CELSIUS
VSB - VISIBILITY IN STATUTE MILES
WCI - WIND CHILL INDEX
HX  - HEAT INDEX





USA.gov is the U.S. government's official web portal to all federal, state and local government web resources and services.